Regional Weather Roundup
Issued by NWS Sterling, VA

Home | Current Version | Previous Version | Graphics & Text | Print | Product List | Glossary On
Versions: 1 2 3 4 5 6 7 8 9 10 11 12 13 14 15 16 17 18 19 20 21 22 23 24 25 26 27 28 29 30 31 32 33 34 35 36 37 38 39 40 41 42 43 44 45 46 47 48 49 50
000
ASUS41 KLWX 281510
RWRLWX

REGIONAL WEATHER ROUNDUP
NATIONAL WEATHER SERVICE BALTIMORE MD/WASHINGTON DC
1000 AM EST SAT FEB 28 2015

Note: "FAIR" indicates few or no clouds below 12,000 feet
with no significant weather and/or obstructions to visibility.
 TC=TEMPERATURE CELSIUS

 * =Non NWS site. Station does not report precipitation (e.g. rain,
    snow, etc.), thunder, or fog.

DCZ001-MDZ009-015-VAZ040>042-051-053>054-281600-
WASHINGTON METRO

CITY           SKY/WX    TMP DP  RH WIND       PRES   REMARKS
WASHINGTON NAT PTSUNNY   25  -1  32 CALM      30.88R
DULLES         PTSUNNY   20  -3  36 N3        30.87R
ANDREWS AFB    PTSUNNY   21  -1  37 N6        30.85R
FT BELVOIR     MOSUNNY   23  -3  32 VRB3      30.88R
QUANTICO       MOSUNNY   24   0  35 VRB6      30.90R
COLLEGE PARK*  MOSUNNY   23   0  36 NW5       30.88R
LEESBURG*      SUNNY     23   3  42 NE6       30.87R
MANASSAS*      SUNNY     21   5  49 NE3       30.88R
GAITHERSBURG*  SUNNY     18  -2  41 CALM      30.88R

$$

MDZ006>007-011-014-281600-
BALTIMORE METRO

CITY           SKY/WX    TMP DP  RH WIND       PRES   REMARKS
BWI AIRPORT    PTSUNNY   20  -1  40 N5        30.86R
MD SCIENCE CTR   N/A     20  -3  36 MISG      30.93R
MARTIN STATE   PTSUNNY   21   0  39 N6        30.88R
ANNAPOLIS      PTSUNNY   21   2  43 N8        30.87R WCI  11
FORT MEADE*    MOSUNNY   21   1  42 CALM      30.89R

$$

MDZ012-015-019>023-281600-
MARYLAND EASTERN SHORE

CITY           SKY/WX    TMP DP  RH WIND       PRES   REMARKS
OCEAN CITY     MOSUNNY   24   9  52 NE13      30.84R WCI  12
SALISBURY      PTSUNNY   26   7  44 NE10      30.83S WCI  16
BAY BRIDGE AP*   N/A     21   3  45 N7        30.87R
CAMBRIDGE*     PTSUNNY   25   5  42 N5        30.85R
EASTON*        MOSUNNY   25   7  46 NE9       30.89R WCI  15

$$

MDZ017>025-281600-
SOUTHERN MARYLAND

CITY           SKY/WX    TMP DP  RH WIND       PRES   REMARKS
PATUXENT RIVER CLOUDY    23   6  48 N9        30.86R WCI  13
ST INIGOES     MOSUNNY   25   5  42 NE7       30.86R
LEONARDTOWN*   MOSUNNY   25   5  42 NE7       30.87R

$$

MDZ003>005-281600-
NORTH CENTRAL MARYLAND

CITY           SKY/WX    TMP DP  RH WIND       PRES   REMARKS
FREDERICK*     SUNNY     21  -6  30 N3        30.89R
HAGERSTOWN APT SUNNY     19  -1  41 VRB3      30.82R
WESTMINSTER*   SUNNY     16  -2  45 CALM      30.80R

$$

MDZ501>502-281600-
WESTERN MARYLAND

CITY           SKY/WX    TMP DP  RH WIND       PRES   REMARKS
OAKLAND*       SUNNY     12  -6  44 E7        30.56F
CUMBERLAND*    SUNNY     23   1  39 CALM      30.84F

$$

VAZ025>031-281600-
SHENANDOAH VALLEY

CITY           SKY/WX    TMP DP  RH WIND       PRES   REMARKS
WINCHESTER*    SUNNY     25  -6  26 CALM      30.82R
FRONT ROYAL*   FAIR      19   1  45 CALM      30.82R
LURAY*         FAIR      25   7  46 N3        30.80S
NEW MARKET*    FAIR      15   2  58 CALM      30.79F
STAUNTON*      MOSUNNY   18   3  51 CALM      30.79S
WAYNESBORO*    CLOUDY    16   3  57 CALM      30.74F

$$

WVZ021-048>050-054>055-281600-
EASTERN WEST VIRGINIA PANHANDLE

CITY           SKY/WX    TMP DP  RH WIND       PRES   REMARKS
MARTINSBURG    SUNNY     22  -1  36 NE5       30.83R
PETERSBURG*    NOT AVBL

$$

VAZ036>039-050-281600-
CENTRAL FOOTHILLS

CITY           SKY/WX    TMP DP  RH WIND       PRES   REMARKS
CHARLOTTESVILL MOSUNNY   21   2  43 E5        30.82F
CULPEPER*      FAIR      23   3  42 N6        30.86S
ORANGE*        MOSUNNY   23   5  46 N7        30.86S
GORDONSVILLE*  FAIR      20   1  43 N9        30.84S WCI  10
WARRENTON*     FAIR      25   9  50 NE7       30.85S

$$

VAZ055>057-281600-
NORTH AND CENTRAL PIEDMONT

CITY           SKY/WX    TMP DP  RH WIND       PRES   REMARKS
FREDERICKSBRG* MOSUNNY   25   2  37 N3        30.87S
STAFFORD*      MOSUNNY   22  -2  34 NE7       30.91S

$$

NCZ024-NYZ072-PAZ021-071-VAZ022-071-281600-
OTHER REGIONAL OBSERVATIONS

CITY           SKY/WX    TMP DP  RH WIND       PRES   REMARKS
NEW YORK CITY  SUNNY     18  -2  41 CALM      30.83S
PHILADELPHIA   PTSUNNY   20  -3  36 N6        30.86S
PITTSBURGH     MOSUNNY   13   0  56 E7        30.75R
ROANOKE        PTSUNNY   22   6  50 SE6       30.77S
RICHMOND       CLOUDY    27   3  35 NE6       30.85S
RALEIGH        PTSUNNY   28  12  51 NE12      30.79R WCI  18

$$

ANZ530>537-281600-
MARINE OBSERVATIONS

STATION/POSITION TIME  TEMP    WIND        PRES
                       AIR SEA DIR/SP/G
                 (UTC) (F)     (DEG/KT/KT) (MB)
THOMAS PT LIGHT  1500   19 30   10/ 11/ 13 1046.3R
BALT KEY BRIDGE  1400   18     350/  7/  8 1045.2R
COVE POINT       1400   20      30/ 14/ 16 1044.4R
LEWISETTA        1400   23 31   20/  3/  7 1044.4R
SOLOMONS ISLAND  1406      32                N/A

$$



USA.gov is the U.S. government's official web portal to all federal, state and local government web resources and services.